SCP
-0 0 0 0 0 0 0 0 0 0 0 0 0 0 0 0 0 0 0 0 0 0 0 0 0 0 0 0 0 0 0 0 0 0 0 0 0 0 0 0 0 0 0 0 0 0 0 0 0
0 0 0 0 0 0 0 0 0 0 0 0 0 0 0 0 0 0 0 0 0 0 0 0 0 0 0 0 0 0 0 0 0 0 0 0 0 0 0 0 0 0 0 0 0 0 0 0 0
0 0 0 0 0 0 0 0 0 0 0 0 0 0 0 0 0 0 0 0 0 0 0 0 0 0 0 0 0 0 0 0 0 0 0 0 0 0 0 0 0 0 0 0 0 0 0 0 0
0 0 0 0 0 0 0 0 0 0 0 0 0 0 0 0 0 0 0 0 0 0 0 0 0 0 0 0 0 0 0 0 0 0 0 0 0 0 0 0 0 0 0 0 0 0 0 0 0
0 0 0 0 0 0 0 0 0 0 0 0 0 0 0 0 0 0 0 0 0 1 1 0 0 0 0 0 0 0 0 0 0 0 0 0 0 0 0 0 0 0 0 0 0 0 0 0 0
0 0 0 0 0 0 0 0 0 0 0 0 0 0 0 0 0 0 0 0 0 0 1 0 0 0 0 0 0 0 0 0 0 0 0 0 0 0 0 0 0 0 0 0 0 0 0 0 0
0 0 0 0 0 0 0 0 0 0 0 0 0 0 0 0 0 0 0 0 0 0 0 0 1 0 0 0 0 0 0 0 0 0 0 0 0 0 0 0 0 0 0 0 0 0 0 0 0
0 0 0 0 0 0 0 0 0 0 0 0 0 0 0 0 0 0 0 0 0 0 0 0 0 0 0 0 0 0 1 0 0 0 0 0 0 0 0 0 0 0 0 0 0 0 0 0 0
0 0 0 0 0 0 0 0 0 0 0 0 0 0 0 0 0 0 0 0 0 0 0 0 0 0 0 0 0 0 0 0 0 0 0 0 0 0 0 -0 0 0 0 0 0 0 0 0 0
0 0 0 0 0 0 0 0 0 0 0 0 0 0 0 0 0 0 0 0 0 0 0 0 0 0 0 0 1 0 0 1 0 0 0 0 0 0 0 0 0 0 0 0 0 0 0 0 0
0 0 0 0 0 0 0 0 0 0 0 0 0 0 0 0 0 0 0 0 0 0 0 0 0 0 0 0 0 1 1 1 1 0 0 0 0 0 0 0 0 0 0 0 0 0 0 0 0
0 0 0 0 0 0 0 0 0 0 0 0 0 0 0 0 0 0 0 0 0 0 0 0 0 0 0 0 0 0 1 1 1 1 0 1 0 0 0 0 0 0 0 0 0 0 0 0 0
0 0 0 0 0 0 0 0 0 0 0 0 0 0 0 0 0 0 0 0 0 0 0 0 0 0 0 0 0 0 0 1 1 1 1 1 0 0 0 0 0 0 0 0 0 0 0 0 0
0 0 0 0 0 0 0 0 0 0 0 0 0 0 0 0 0 0 0 0 0 0 0 0 0 0 0 0 0 0 0 1 1 1 1 1 0 0 0 0 0 0 0 0 0 0 0 0 0
0 0 0 0 0 0 0 0 0 0 0 0 0 0 0 0 0 0 0 0 0 0 0 0 0 0 0 0 0 0 0 0 1 1 0 0 0 0 0 0 0 0 0 0 0 0 0 0 0
0 0 0 0 0 0 0 0 0 0 0 0 0 0 0 0 0 0 0 0 0 0 0 0 0 0 0 0 0 0 0 0 1 0 0 0 0 0 0 0 0 0 0 0 0 0 0 0 0
0 0 0 0 0 0 0 0 0 0 0 0 0 0 0 0 0 0 0 0 0 0 0 0 0 0 0 0 0 0 0 0 0 1 0 0 0 0 0 0 0 0 0 0 0 0 0 0 0
0 0 0 0 0 0 0 0 0 0 0 0 0 0 0 0 -0 -0 0 0 0 0 0 0 0 0 0 0 0 0 0 0 0 1 1 0 0 0 0 0 0 0 0 0 0 0 0 0 0
0 0 0 0 0 0 0 0 0 0 0 0 0 0 0 0 -0 -0 -0 -0 0 0 0 0 0 0 0 0 0 0 0 0 1 1 1 0 0 0 0 0 0 0 0 0 0 0 0 0 0
0 0 0 0 0 0 0 0 0 0 0 0 0 0 0 0 0 0 -0 -0 0 0 0 -0 -0 0 0 0 0 0 0 1 1 1 1 0 0 0 0 0 0 0 0 0 0 0 0 0 0
0 0 0 0 0 0 0 0 0 0 0 0 0 0 0 0 0 0 0 0 0 0 0 -0 -0 -0 0 0 0 0 0 0 1 1 1 0 0 0 0 0 0 0 0 0 0 0 0 0 0
0 0 0 0 -0 0 0 0 0 0 0 0 0 0 0 0 0 0 0 0 0 0 0 0 -0 0 0 0 0 0 0 0 1 1 0 0 0 0 0 0 0 0 0 0 0 0 0 0 0
0 0 0 0 0 0 0 0 0 0 0 0 0 0 0 0 0 0 0 0 0 0 0 -0 -0 0 -0 0 0 0 0 0 1 0 0 0 0 0 0 0 0 0 0 0 0 0 0 0 0
0 0 0 0 0 0 0 0 0 0 0 0 0 0 0 0 0 0 0 0 0 0 0 0 -0 0 -0 -0 -0 0 0 0 0 0 0 0 0 0 0 0 0 0 0 0 0 0 0 0 0
0 0 0 0 0 0 0 0 0 0 0 0 0 0 0 0 0 0 0 0 0 0 0 0 -0 0 0 0 -0 0 0 0 0 0 0 0 0 0 0 0 0 0 0 0 0 0 0 0 0
0 0 0 0 0 0 0 0 0 0 0 0 0 0 0 0 0 0 0 0 0 0 0 0 0 -0 -0 0 0 0 0 0 0 0 0 0 0 0 0 0 0 0 0 0 0 0 0 0 0
0 0 0 0 0 0 0 0 0 0 0 0 0 0 0 0 0 0 0 0 0 0 0 0 0 0 0 -0 0 0 -0 -0 0 0 0 0 0 0 0 0 0 0 0 0 0 0 0 0 -0
0 0 0 0 0 0 0 0 0 0 0 0 0 0 0 0 0 0 0 0 0 0 0 0 0 0 0 0 -0 -0 -0 -0 0 0 0 0 0 0 0 0 0 0 0 0 -0 -0 -0 -0 -0
0 0 0 0 0 0 0 0 0 0 0 0 0 0 0 0 0 0 0 0 0 0 -0 -0 -0 -0 0 0 -0 -0 -0 -0 -0 -0 0 0 0 0 -0 -0 -0 -0 -0 -0 -0 -0 -0 0 0
0 0 0 0 0 0 0 0 0 0 0 0 0 0 0 0 0 0 0 0 0 0 0 -0 -0 -0 -0 -0 0 0 0 -0 0 -0 -0 -0 -0 0 -0 -0 0 0 0 0 -0 -0 -0 -0 -0
Wind_Speed_500mb
16 17 10 2 8 7 4 4 5 1 1 11 27 15 12 16 10 7 27 21 25 21 18 25 24 24 27 26 26 26 28 29 27 28 26 26 23 19 18 15 10 8 8 12 19 21 20 24 18
15 19 10 3 8 9 7 1 6 6 22 30 11 4 7 9 17 17 20 30 16 14 17 27 31 30 29 29 28 26 27 28 29 30 30 26 24 23 22 16 13 13 7 19 19 17 17 18 19
22 24 9 5 5 5 4 4 10 18 15 24 7 16 7 13 18 21 34 29 20 13 15 26 37 34 34 29 28 27 25 22 21 26 29 29 28 25 23 19 18 18 19 19 20 21 19 18 17
18 7 5 9 6 4 4 6 16 18 3 18 13 10 13 22 16 32 34 23 19 12 11 26 34 34 38 34 30 29 27 24 27 29 28 27 27 26 25 23 19 20 24 23 20 22 21 18 17
16 5 6 6 6 4 4 11 11 12 6 15 16 3 12 6 29 27 25 20 20 17 12 23 32 34 37 39 34 32 30 28 30 31 34 33 29 28 27 22 22 24 25 25 23 22 22 20 18
6 3 7 10 7 5 3 15 5 9 9 11 11 9 8 7 31 31 29 25 21 17 13 22 31 36 37 41 40 37 35 31 36 35 34 36 32 28 25 19 26 26 27 26 24 23 21 20 19
4 5 4 5 6 8 3 17 6 13 10 9 16 11 8 14 42 38 35 31 25 22 17 22 28 34 41 42 44 41 38 37 41 39 38 35 31 25 20 17 24 28 27 26 26 23 21 20 19
3 1 9 3 7 6 5 8 7 14 7 8 16 8 11 48 53 49 43 36 29 25 28 27 31 36 38 45 48 46 42 43 43 43 41 38 32 28 21 18 20 27 28 27 26 23 22 21 21
6 5 5 6 7 7 5 8 6 8 7 4 12 14 28 46 51 50 46 41 36 27 28 32 37 39 43 41 48 49 47 48 48 46 46 44 40 35 28 23 19 23 30 31 26 24 24 23 22
3 1 5 4 4 3 5 5 9 7 9 5 15 27 35 43 45 48 48 47 47 45 36 34 35 45 47 49 47 50 52 54 55 52 51 51 50 44 35 28 25 24 29 31 28 28 28 24 20
6 5 10 6 3 2 3 3 5 10 1 13 32 41 41 40 39 38 40 41 45 47 49 46 46 41 45 51 55 55 56 56 53 49 51 54 56 55 40 35 31 28 34 35 31 26 25 22 23
7 8 5 6 2 1 5 6 2 11 8 19 24 31 36 40 37 37 38 42 46 46 46 48 51 51 49 49 57 60 55 62 62 65 55 59 60 58 51 40 35 31 28 29 31 25 25 26 26
11 10 9 7 3 7 5 5 3 4 17 19 24 28 34 35 35 37 36 37 41 43 46 44 47 51 53 56 54 60 65 58 68 67 66 65 62 60 56 41 38 33 32 32 30 27 27 28 27
7 13 11 5 4 1 11 4 7 2 21 24 25 28 31 34 36 39 39 40 44 43 46 49 47 46 48 54 55 57 64 66 67 71 80 62 58 57 57 49 41 36 35 34 33 33 31 29 28
13 11 5 2 3 4 4 8 6 11 20 27 30 31 35 36 38 36 42 42 44 50 49 57 57 49 48 50 54 56 56 64 55 69 61 69 58 56 66 55 45 41 37 35 37 36 34 31 28
5 3 6 6 4 3 5 2 5 11 21 26 34 37 38 42 42 41 40 42 43 48 58 66 57 54 52 51 54 58 56 56 57 63 60 62 44 69 82 61 53 44 38 37 37 34 32 29 26
3 5 5 3 1 5 3 8 8 8 17 24 31 34 35 40 42 40 41 42 43 46 58 65 56 49 49 52 51 58 56 54 59 61 56 53 51 64 80 65 58 46 40 39 36 34 31 29 28
9 5 4 7 3 5 13 18 4 7 12 17 21 25 32 40 42 41 45 48 49 46 51 60 57 51 45 52 51 46 55 52 56 61 60 65 62 63 71 71 60 50 42 41 40 36 31 31 26
9 4 3 4 1 10 9 18 14 9 8 11 14 21 27 31 36 41 47 49 46 48 54 55 59 56 51 49 44 38 39 38 53 59 61 50 49 69 61 63 72 52 45 42 37 37 35 31 28
4 2 4 8 6 7 14 26 17 15 10 10 16 22 25 29 35 39 53 58 52 56 62 69 56 54 51 44 43 31 29 34 44 53 53 54 33 53 48 72 53 53 46 46 40 40 37 33 27
5 4 3 6 12 5 20 11 10 11 20 18 22 21 20 25 34 37 42 56 65 65 66 65 63 46 42 34 32 27 32 27 41 42 45 47 43 41 54 60 59 52 50 43 36 37 37 33 29
5 8 5 3 11 7 9 8 8 12 15 18 20 18 22 26 29 36 39 51 62 72 72 62 66 46 30 21 18 25 32 30 34 39 45 45 48 40 43 57 55 65 55 45 35 36 36 36 33
4 6 2 2 4 9 4 4 2 5 12 16 15 12 15 22 27 34 40 45 58 65 80 71 71 47 24 21 10 22 30 28 30 30 33 40 36 42 45 58 50 56 40 43 36 37 42 41 44
12 6 4 2 3 6 5 4 7 10 10 7 10 10 13 19 25 32 40 43 49 61 70 74 82 59 38 30 19 17 23 26 31 25 29 36 49 41 38 56 63 59 47 41 37 33 30 26 22
6 5 3 4 5 4 6 7 14 9 14 10 9 10 11 14 21 31 41 48 49 55 61 77 74 62 52 49 34 25 23 25 35 32 37 25 24 29 37 39 47 46 39 33 34 36 35 27 39
10 5 4 8 4 4 4 11 4 4 9 13 12 13 10 11 15 23 32 40 44 43 51 56 67 74 60 65 63 55 53 44 51 57 51 59 64 66 66 61 54 64 63 63 64 62 58 47 42
8 8 4 5 1 6 5 11 17 10 14 19 19 17 14 9 8 17 26 32 38 41 42 47 53 61 64 80 78 76 84 84 87 89 84 85 84 82 80 79 75 70 67 66 65 54 42 29 26
7 10 5 2 5 8 7 11 12 16 28 24 23 26 17 9 5 10 19 26 30 34 34 36 43 53 56 62 67 72 75 77 80 86 88 85 81 77 74 68 69 66 60 43 36 36 30 23 24
9 7 4 4 6 5 7 8 9 18 21 30 33 28 20 12 7 4 11 19 26 27 29 32 36 39 44 52 58 64 68 69 74 77 78 73 67 64 60 52 52 50 45 38 33 33 30 26 24
3 8 16 7 9 5 4 13 10 12 11 25 32 31 25 18 12 4 3 11 16 20 24 27 32 36 40 38 42 49 47 52 59 61 53 57 54 52 47 45 47 45 43 40 36 33 29 25 20
Wind_Direction_500mb
213 199 189 217 233 241 198 137 333 50 227 350 307 269 37 34 1 14 326 330 311 327 231 211 216 234 234 225 220 213 211 221 220 225 219 222 232 217 198 192 216 237 240 177 165 176 181 186 168
177 165 165 169 248 238 114 93 170 344 331 329 323 324 166 81 22 327 347 320 333 322 223 210 214 222 229 227 222 222 225 226 231 229 230 220 207 194 194 212 237 244 223 177 167 178 166 162 164
152 157 190 228 250 283 112 82 330 326 330 353 346 42 48 355 341 341 335 336 335 325 229 218 217 222 229 232 226 226 228 225 218 208 208 198 192 204 210 239 246 223 182 189 179 181 188 171 171
137 148 93 245 227 87 37 359 343 335 56 11 353 80 92 39 2 346 347 342 335 314 253 233 218 228 230 231 231 230 229 221 212 212 201 195 206 223 245 253 234 199 188 188 188 182 182 184 185
143 161 180 204 180 129 101 6 340 338 348 359 353 80 165 0 1 353 354 351 339 316 250 230 227 231 234 232 231 232 227 229 217 214 223 224 235 241 254 254 213 197 194 198 193 197 189 191 195
137 188 207 224 172 143 117 358 307 337 349 353 360 320 188 19 340 351 351 349 331 316 278 236 234 235 241 236 234 233 229 230 224 219 222 221 226 239 248 244 205 200 201 203 203 198 201 200 203
167 211 177 160 156 177 73 346 1 340 338 6 337 294 288 319 335 336 341 336 325 301 284 239 240 248 243 242 239 236 233 230 231 226 221 222 224 224 240 238 212 203 209 208 210 205 208 210 213
105 199 146 154 176 133 23 354 0 357 14 339 356 354 327 323 327 327 325 322 316 301 280 266 258 236 246 245 243 236 235 233 232 232 227 222 224 221 227 236 234 208 215 220 215 213 215 216 219
101 209 166 134 179 116 15 349 14 339 328 24 13 5 319 323 323 321 316 307 298 290 285 274 266 259 252 242 247 243 238 235 234 232 232 226 221 222 220 220 245 236 214 226 224 222 220 223 228
27 241 94 78 77 37 8 337 334 312 336 319 332 322 328 331 334 329 326 319 308 297 287 280 268 258 258 255 243 244 240 235 234 232 230 228 225 225 228 220 235 244 239 222 226 226 226 227 233
33 71 127 136 58 13 4 299 353 320 314 355 327 323 329 331 331 331 327 324 314 303 294 285 279 268 257 253 251 245 244 237 232 228 228 229 230 230 229 221 224 231 243 234 226 230 232 235 234
109 92 99 123 102 115 351 318 70 51 357 321 317 322 327 327 328 329 325 323 321 313 302 291 282 273 268 257 247 251 248 242 237 236 227 230 230 231 226 223 229 228 232 244 219 224 231 238 242
93 135 110 111 124 60 3 27 207 91 348 334 330 327 325 327 326 326 324 324 323 318 314 304 296 281 266 261 255 244 246 248 242 240 231 231 231 231 228 226 232 237 244 243 236 227 236 242 247
111 131 120 72 55 125 356 111 186 322 339 339 333 333 332 332 329 329 328 327 331 326 323 315 309 297 284 265 255 251 243 242 245 245 241 226 231 233 217 225 231 241 246 242 238 235 237 244 250
121 134 144 176 355 214 339 203 212 330 334 339 344 341 340 344 340 334 332 326 327 333 330 328 316 304 289 282 267 254 248 234 251 250 248 215 227 240 229 229 233 243 242 238 237 237 240 247 254
133 172 217 159 322 174 320 303 163 342 335 347 354 351 348 345 341 333 330 331 328 332 334 326 318 308 299 280 271 262 250 237 240 246 249 241 236 231 239 225 231 238 238 234 233 232 236 242 250
158 233 222 216 155 314 308 307 177 325 338 357 0 0 358 353 347 343 338 335 329 337 341 329 324 313 305 291 275 261 254 241 225 250 240 240 228 223 236 231 231 234 234 232 230 231 236 241 244
183 203 230 271 143 261 290 264 245 301 346 347 359 1 8 8 1 352 350 346 339 334 340 338 334 323 309 299 279 263 252 241 228 230 238 242 220 230 220 230 227 227 228 227 229 231 236 238 242
111 144 252 259 324 310 253 273 299 228 281 341 343 337 344 355 4 4 2 4 356 2 352 340 334 325 313 302 290 275 252 236 225 224 234 237 238 226 222 227 227 223 227 228 235 232 236 242 239
135 164 256 277 243 295 288 283 275 218 264 283 307 314 326 331 337 351 3 5 5 1 356 1 341 326 307 298 286 259 232 224 217 223 231 232 239 229 215 231 221 221 224 224 229 230 236 239 238
186 203 201 291 325 250 306 263 206 223 251 269 277 293 317 335 342 346 359 6 6 8 1 358 349 339 310 293 277 237 213 202 206 216 225 225 229 228 251 210 217 214 226 226 232 234 236 240 240
240 189 176 314 331 299 349 294 232 226 256 261 276 301 323 339 352 355 359 1 8 10 9 1 357 356 330 312 275 211 193 205 199 208 216 222 227 223 232 206 216 212 212 214 221 230 235 238 239
81 150 166 347 285 304 172 256 192 213 255 239 244 283 319 339 353 356 6 12 6 12 13 11 7 12 12 359 319 197 187 196 195 201 209 219 225 228 220 212 218 211 208 213 215 225 233 235 243
133 140 94 88 267 251 117 320 238 198 201 191 221 271 311 342 355 1 8 8 13 13 15 19 22 22 49 51 39 151 183 180 189 198 203 211 220 217 217 223 211 200 204 207 213 221 237 227 206
196 210 305 256 220 280 148 248 269 224 213 207 218 258 299 335 358 4 10 11 16 20 19 22 25 36 50 78 98 131 159 173 155 166 184 181 186 185 185 212 191 176 187 189 197 160 149 145 119
192 245 237 273 274 329 142 235 255 238 220 218 234 255 277 316 3 9 15 16 16 22 24 27 35 37 54 78 89 109 120 146 132 136 140 131 129 128 130 127 127 120 117 115 112 110 110 111 108
159 205 50 107 83 278 216 249 246 201 210 221 228 247 254 281 358 13 20 24 21 25 30 30 39 49 54 66 81 96 107 114 113 112 117 113 110 111 112 108 107 104 107 104 102 102 111 119 114
268 141 134 209 241 256 228 266 246 209 217 214 224 231 235 250 321 17 20 28 32 31 37 44 44 48 53 64 75 83 92 98 102 108 107 107 109 109 102 102 104 109 106 115 116 118 126 134 130
160 208 191 299 244 259 292 243 199 195 197 199 208 218 218 213 234 11 35 29 36 37 45 52 60 59 60 59 65 80 82 87 89 96 97 100 104 107 111 111 115 117 120 126 131 126 118 116 108
253 234 191 224 195 243 323 270 171 202 202 199 195 201 207 208 215 196 24 51 48 50 59 62 68 73 75 74 71 81 81 84 89 97 98 105 109 113 114 114 114 115 117 117 113 109 107 102 97
Wind_Speed_850mb
16 17 10 2 8 7 4 4 5 1 1 11 27 15 12 16 10 7 27 21 25 21 18 25 24 24 27 26 26 26 28 29 27 28 26 26 23 19 18 15 10 8 8 12 19 21 20 24 18
15 19 10 3 8 9 7 1 6 6 22 30 11 4 7 9 17 17 20 30 16 14 17 27 31 30 29 29 28 26 27 28 29 30 30 26 24 23 22 16 13 13 7 19 19 17 17 18 19
22 24 9 5 5 5 4 4 10 18 15 24 7 16 7 13 18 21 34 29 20 13 15 26 37 34 34 29 28 27 25 22 21 26 29 29 28 25 23 19 18 18 19 19 20 21 19 18 17
18 7 5 9 6 4 4 6 16 18 3 18 13 10 13 22 16 32 34 23 19 12 11 26 34 34 38 34 30 29 27 24 27 29 28 27 27 26 25 23 19 20 24 23 20 22 21 18 17
16 5 6 6 6 4 4 11 11 12 6 15 16 3 12 6 29 27 25 20 20 17 12 23 32 34 37 39 34 32 30 28 30 31 34 33 29 28 27 22 22 24 25 25 23 22 22 20 18
6 3 7 10 7 5 3 15 5 9 9 11 11 9 8 7 31 31 29 25 21 17 13 22 31 36 37 41 40 37 35 31 36 35 34 36 32 28 25 19 26 26 27 26 24 23 21 20 19
4 5 4 5 6 8 3 17 6 13 10 9 16 11 8 14 42 38 35 31 25 22 17 22 28 34 41 42 44 41 38 37 41 39 38 35 31 25 20 17 24 28 27 26 26 23 21 20 19
3 1 9 3 7 6 5 8 7 14 7 8 16 8 11 48 53 49 43 36 29 25 28 27 31 36 38 45 48 46 42 43 43 43 41 38 32 28 21 18 20 27 28 27 26 23 22 21 21
6 5 5 6 7 7 5 8 6 8 7 4 12 14 28 46 51 50 46 41 36 27 28 32 37 39 43 41 48 49 47 48 48 46 46 44 40 35 28 23 19 23 30 31 26 24 24 23 22
3 1 5 4 4 3 5 5 9 7 9 5 15 27 35 43 45 48 48 47 47 45 36 34 35 45 47 49 47 50 52 54 55 52 51 51 50 44 35 28 25 24 29 31 28 28 28 24 20
6 5 10 6 3 2 3 3 5 10 1 13 32 41 41 40 39 38 40 41 45 47 49 46 46 41 45 51 55 55 56 56 53 49 51 54 56 55 40 35 31 28 34 35 31 26 25 22 23
7 8 5 6 2 1 5 6 2 11 8 19 24 31 36 40 37 37 38 42 46 46 46 48 51 51 49 49 57 60 55 62 62 65 55 59 60 58 51 40 35 31 28 29 31 25 25 26 26
11 10 9 7 3 7 5 5 3 4 17 19 24 28 34 35 35 37 36 37 41 43 46 44 47 51 53 56 54 60 65 58 68 67 66 65 62 60 56 41 38 33 32 32 30 27 27 28 27
7 13 11 5 4 1 11 4 7 2 21 24 25 28 31 34 36 39 39 40 44 43 46 49 47 46 48 54 55 57 64 66 67 71 80 62 58 57 57 49 41 36 35 34 33 33 31 29 28
13 11 5 2 3 4 4 8 6 11 20 27 30 31 35 36 38 36 42 42 44 50 49 57 57 49 48 50 54 56 56 64 55 69 61 69 58 56 66 55 45 41 37 35 37 36 34 31 28
5 3 6 6 4 3 5 2 5 11 21 26 34 37 38 42 42 41 40 42 43 48 58 66 57 54 52 51 54 58 56 56 57 63 60 62 44 69 82 61 53 44 38 37 37 34 32 29 26
3 5 5 3 1 5 3 8 8 8 17 24 31 34 35 40 42 40 41 42 43 46 58 65 56 49 49 52 51 58 56 54 59 61 56 53 51 64 80 65 58 46 40 39 36 34 31 29 28
9 5 4 7 3 5 13 18 4 7 12 17 21 25 32 40 42 41 45 48 49 46 51 60 57 51 45 52 51 46 55 52 56 61 60 65 62 63 71 71 60 50 42 41 40 36 31 31 26
9 4 3 4 1 10 9 18 14 9 8 11 14 21 27 31 36 41 47 49 46 48 54 55 59 56 51 49 44 38 39 38 53 59 61 50 49 69 61 63 72 52 45 42 37 37 35 31 28
4 2 4 8 6 7 14 26 17 15 10 10 16 22 25 29 35 39 53 58 52 56 62 69 56 54 51 44 43 31 29 34 44 53 53 54 33 53 48 72 53 53 46 46 40 40 37 33 27
5 4 3 6 12 5 20 11 10 11 20 18 22 21 20 25 34 37 42 56 65 65 66 65 63 46 42 34 32 27 32 27 41 42 45 47 43 41 54 60 59 52 50 43 36 37 37 33 29
5 8 5 3 11 7 9 8 8 12 15 18 20 18 22 26 29 36 39 51 62 72 72 62 66 46 30 21 18 25 32 30 34 39 45 45 48 40 43 57 55 65 55 45 35 36 36 36 33
4 6 2 2 4 9 4 4 2 5 12 16 15 12 15 22 27 34 40 45 58 65 80 71 71 47 24 21 10 22 30 28 30 30 33 40 36 42 45 58 50 56 40 43 36 37 42 41 44
12 6 4 2 3 6 5 4 7 10 10 7 10 10 13 19 25 32 40 43 49 61 70 74 82 59 38 30 19 17 23 26 31 25 29 36 49 41 38 56 63 59 47 41 37 33 30 26 22
6 5 3 4 5 4 6 7 14 9 14 10 9 10 11 14 21 31 41 48 49 55 61 77 74 62 52 49 34 25 23 25 35 32 37 25 24 29 37 39 47 46 39 33 34 36 35 27 39
10 5 4 8 4 4 4 11 4 4 9 13 12 13 10 11 15 23 32 40 44 43 51 56 67 74 60 65 63 55 53 44 51 57 51 59 64 66 66 61 54 64 63 63 64 62 58 47 42
8 8 4 5 1 6 5 11 17 10 14 19 19 17 14 9 8 17 26 32 38 41 42 47 53 61 64 80 78 76 84 84 87 89 84 85 84 82 80 79 75 70 67 66 65 54 42 29 26
7 10 5 2 5 8 7 11 12 16 28 24 23 26 17 9 5 10 19 26 30 34 34 36 43 53 56 62 67 72 75 77 80 86 88 85 81 77 74 68 69 66 60 43 36 36 30 23 24
9 7 4 4 6 5 7 8 9 18 21 30 33 28 20 12 7 4 11 19 26 27 29 32 36 39 44 52 58 64 68 69 74 77 78 73 67 64 60 52 52 50 45 38 33 33 30 26 24
3 8 16 7 9 5 4 13 10 12 11 25 32 31 25 18 12 4 3 11 16 20 24 27 32 36 40 38 42 49 47 52 59 61 53 57 54 52 47 45 47 45 43 40 36 33 29 25 20
Wind_Direction_850mb
213 199 189 217 233 241 198 137 333 50 227 350 307 269 37 34 1 14 326 330 311 327 231 211 216 234 234 225 220 213 211 221 220 225 219 222 232 217 198 192 216 237 240 177 165 176 181 186 168
177 165 165 169 248 238 114 93 170 344 331 329 323 324 166 81 22 327 347 320 333 322 223 210 214 222 229 227 222 222 225 226 231 229 230 220 207 194 194 212 237 244 223 177 167 178 166 162 164
152 157 190 228 250 283 112 82 330 326 330 353 346 42 48 355 341 341 335 336 335 325 229 218 217 222 229 232 226 226 228 225 218 208 208 198 192 204 210 239 246 223 182 189 179 181 188 171 171
137 148 93 245 227 87 37 359 343 335 56 11 353 80 92 39 2 346 347 342 335 314 253 233 218 228 230 231 231 230 229 221 212 212 201 195 206 223 245 253 234 199 188 188 188 182 182 184 185
143 161 180 204 180 129 101 6 340 338 348 359 353 80 165 0 1 353 354 351 339 316 250 230 227 231 234 232 231 232 227 229 217 214 223 224 235 241 254 254 213 197 194 198 193 197 189 191 195
137 188 207 224 172 143 117 358 307 337 349 353 360 320 188 19 340 351 351 349 331 316 278 236 234 235 241 236 234 233 229 230 224 219 222 221 226 239 248 244 205 200 201 203 203 198 201 200 203
167 211 177 160 156 177 73 346 1 340 338 6 337 294 288 319 335 336 341 336 325 301 284 239 240 248 243 242 239 236 233 230 231 226 221 222 224 224 240 238 212 203 209 208 210 205 208 210 213
105 199 146 154 176 133 23 354 0 357 14 339 356 354 327 323 327 327 325 322 316 301 280 266 258 236 246 245 243 236 235 233 232 232 227 222 224 221 227 236 234 208 215 220 215 213 215 216 219
101 209 166 134 179 116 15 349 14 339 328 24 13 5 319 323 323 321 316 307 298 290 285 274 266 259 252 242 247 243 238 235 234 232 232 226 221 222 220 220 245 236 214 226 224 222 220 223 228
27 241 94 78 77 37 8 337 334 312 336 319 332 322 328 331 334 329 326 319 308 297 287 280 268 258 258 255 243 244 240 235 234 232 230 228 225 225 228 220 235 244 239 222 226 226 226 227 233
33 71 127 136 58 13 4 299 353 320 314 355 327 323 329 331 331 331 327 324 314 303 294 285 279 268 257 253 251 245 244 237 232 228 228 229 230 230 229 221 224 231 243 234 226 230 232 235 234
109 92 99 123 102 115 351 318 70 51 357 321 317 322 327 327 328 329 325 323 321 313 302 291 282 273 268 257 247 251 248 242 237 236 227 230 230 231 226 223 229 228 232 244 219 224 231 238 242
93 135 110 111 124 60 3 27 207 91 348 334 330 327 325 327 326 326 324 324 323 318 314 304 296 281 266 261 255 244 246 248 242 240 231 231 231 231 228 226 232 237 244 243 236 227 236 242 247
111 131 120 72 55 125 356 111 186 322 339 339 333 333 332 332 329 329 328 327 331 326 323 315 309 297 284 265 255 251 243 242 245 245 241 226 231 233 217 225 231 241 246 242 238 235 237 244 250
121 134 144 176 355 214 339 203 212 330 334 339 344 341 340 344 340 334 332 326 327 333 330 328 316 304 289 282 267 254 248 234 251 250 248 215 227 240 229 229 233 243 242 238 237 237 240 247 254
133 172 217 159 322 174 320 303 163 342 335 347 354 351 348 345 341 333 330 331 328 332 334 326 318 308 299 280 271 262 250 237 240 246 249 241 236 231 239 225 231 238 238 234 233 232 236 242 250
158 233 222 216 155 314 308 307 177 325 338 357 0 0 358 353 347 343 338 335 329 337 341 329 324 313 305 291 275 261 254 241 225 250 240 240 228 223 236 231 231 234 234 232 230 231 236 241 244
183 203 230 271 143 261 290 264 245 301 346 347 359 1 8 8 1 352 350 346 339 334 340 338 334 323 309 299 279 263 252 241 228 230 238 242 220 230 220 230 227 227 228 227 229 231 236 238 242
111 144 252 259 324 310 253 273 299 228 281 341 343 337 344 355 4 4 2 4 356 2 352 340 334 325 313 302 290 275 252 236 225 224 234 237 238 226 222 227 227 223 227 228 235 232 236 242 239
135 164 256 277 243 295 288 283 275 218 264 283 307 314 326 331 337 351 3 5 5 1 356 1 341 326 307 298 286 259 232 224 217 223 231 232 239 229 215 231 221 221 224 224 229 230 236 239 238
186 203 201 291 325 250 306 263 206 223 251 269 277 293 317 335 342 346 359 6 6 8 1 358 349 339 310 293 277 237 213 202 206 216 225 225 229 228 251 210 217 214 226 226 232 234 236 240 240
240 189 176 314 331 299 349 294 232 226 256 261 276 301 323 339 352 355 359 1 8 10 9 1 357 356 330 312 275 211 193 205 199 208 216 222 227 223 232 206 216 212 212 214 221 230 235 238 239
81 150 166 347 285 304 172 256 192 213 255 239 244 283 319 339 353 356 6 12 6 12 13 11 7 12 12 359 319 197 187 196 195 201 209 219 225 228 220 212 218 211 208 213 215 225 233 235 243
133 140 94 88 267 251 117 320 238 198 201 191 221 271 311 342 355 1 8 8 13 13 15 19 22 22 49 51 39 151 183 180 189 198 203 211 220 217 217 223 211 200 204 207 213 221 237 227 206
196 210 305 256 220 280 148 248 269 224 213 207 218 258 299 335 358 4 10 11 16 20 19 22 25 36 50 78 98 131 159 173 155 166 184 181 186 185 185 212 191 176 187 189 197 160 149 145 119
192 245 237 273 274 329 142 235 255 238 220 218 234 255 277 316 3 9 15 16 16 22 24 27 35 37 54 78 89 109 120 146 132 136 140 131 129 128 130 127 127 120 117 115 112 110 110 111 108
159 205 50 107 83 278 216 249 246 201 210 221 228 247 254 281 358 13 20 24 21 25 30 30 39 49 54 66 81 96 107 114 113 112 117 113 110 111 112 108 107 104 107 104 102 102 111 119 114
268 141 134 209 241 256 228 266 246 209 217 214 224 231 235 250 321 17 20 28 32 31 37 44 44 48 53 64 75 83 92 98 102 108 107 107 109 109 102 102 104 109 106 115 116 118 126 134 130
160 208 191 299 244 259 292 243 199 195 197 199 208 218 218 213 234 11 35 29 36 37 45 52 60 59 60 59 65 80 82 87 89 96 97 100 104 107 111 111 115 117 120 126 131 126 118 116 108
253 234 191 224 195 243 323 270 171 202 202 199 195 201 207 208 215 196 24 51 48 50 59 62 68 73 75 74 71 81 81 84 89 97 98 105 109 113 114 114 114 115 117 117 113 109 107 102 97